DLH6C LSZH-EDDF

Flight info

Callsign DLH6C
Flight time 0h 37m
Altitude 22000
Route DEGES Z1 SUDEN T164 KOVAN T163 SPESA SPESA5B
Aircraft A20N/M-SDE2E3FGHIRWXY/LB1

Departure

Time 2026-05-07 11:37
Airport Zürich Airport (LSZH)

Arrival

Time 2026-05-07 12:14
Airport Frankfurt Main Airport (EDDF)
Time Latitude Longitude Altitude Speed Heading
2026-05-07 11:07 47.45173 8.55939 1397 ft 0 kts 186°
2026-05-07 11:28 47.45188 8.55941 1404 ft 4 kts 186°
2026-05-07 11:28 47.45210 8.55944 1401 ft 4 kts 188°
2026-05-07 11:29 47.45235 8.55953 1406 ft 4 kts 213°
2026-05-07 11:29 47.45247 8.55979 1407 ft 3 kts 276°
2026-05-07 11:29 47.45246 8.55996 1401 ft 1 kts 276°
2026-05-07 11:31 47.45247 8.55983 1407 ft 4 kts 276°
2026-05-07 11:32 47.45268 8.55686 1397 ft 17 kts 276°
2026-05-07 11:32 47.45307 8.55558 1404 ft 14 kts 333°
2026-05-07 11:32 47.45401 8.55491 1400 ft 16 kts 335°
2026-05-07 11:33 47.45509 8.55417 1398 ft 18 kts 335°
2026-05-07 11:33 47.45626 8.55339 1402 ft 14 kts 339°
2026-05-07 11:33 47.45670 8.55420 1397 ft 13 kts 95°
2026-05-07 11:33 47.45660 8.55567 1401 ft 16 kts 97°
2026-05-07 11:34 47.45645 8.55741 1405 ft 18 kts 96°
2026-05-07 11:34 47.45633 8.55938 1401 ft 20 kts 95°
2026-05-07 11:34 47.45618 8.56157 1406 ft 22 kts 96°
2026-05-07 11:34 47.45600 8.56393 1405 ft 24 kts 96°
2026-05-07 11:35 47.45582 8.56645 1402 ft 25 kts 96°
2026-05-07 11:35 47.45566 8.56891 1399 ft 15 kts 93°
2026-05-07 11:35 47.45600 8.57016 1405 ft 12 kts 19°
2026-05-07 11:35 47.45658 8.57001 1407 ft 9 kts 316°
2026-05-07 11:36 47.45669 8.56907 1406 ft 11 kts 274°
2026-05-07 11:36 47.45691 8.56611 1407 ft 62 kts 276°
2026-05-07 11:36 47.45758 8.55654 1398 ft 123 kts 276°
2026-05-07 11:36 47.45862 8.54168 1521 ft 156 kts 276°
2026-05-07 11:37 47.45966 8.52625 2325 ft 148 kts 275°
2026-05-07 11:37 47.46057 8.51125 3126 ft 145 kts 275°
2026-05-07 11:37 47.46172 8.49575 3676 ft 160 kts 276°
2026-05-07 11:37 47.46193 8.47832 4173 ft 181 kts 256°
2026-05-07 11:38 47.45496 8.46199 4702 ft 204 kts 223°
2026-05-07 11:38 47.44265 8.44961 5171 ft 229 kts 202°
2026-05-07 11:38 47.42604 8.44710 5683 ft 256 kts 172°
2026-05-07 11:38 47.40916 8.45815 6375 ft 276 kts 142°
2026-05-07 11:39 47.39734 8.48062 7340 ft 283 kts 114°
2026-05-07 11:39 47.39349 8.50922 8403 ft 291 kts 89°
2026-05-07 11:39 47.39662 8.53893 9500 ft 296 kts 69°
2026-05-07 11:39 47.40764 8.56454 10459 ft 302 kts 45°
2026-05-07 11:40 47.42425 8.58536 10856 ft 326 kts 35°
2026-05-07 11:40 47.44350 8.60540 11180 ft 348 kts 34°
2026-05-07 11:40 47.46353 8.62634 11941 ft 355 kts 35°
2026-05-07 11:40 47.48345 8.64814 12769 ft 361 kts 36°
2026-05-07 11:41 47.50399 8.66996 13579 ft 366 kts 27°
2026-05-07 11:41 47.52756 8.68445 14335 ft 369 kts 17°
2026-05-07 11:41 47.55256 8.69362 15148 ft 369 kts
2026-05-07 11:41 47.57795 8.70023 15927 ft 373 kts
2026-05-07 11:42 47.60353 8.70650 16705 ft 376 kts
2026-05-07 11:42 47.62950 8.71308 17461 ft 379 kts
2026-05-07 11:42 47.65558 8.71997 18217 ft 382 kts
2026-05-07 11:42 47.68186 8.72707 18875 ft 386 kts
2026-05-07 11:43 47.70838 8.73438 19513 ft 390 kts
2026-05-07 11:43 47.73514 8.74179 20151 ft 393 kts
2026-05-07 11:43 47.76219 8.74930 20789 ft 396 kts
2026-05-07 11:43 47.78940 8.75685 21348 ft 400 kts
2026-05-07 11:44 47.81682 8.76446 21650 ft 402 kts
2026-05-07 11:44 47.84433 8.77209 21918 ft 403 kts
2026-05-07 11:44 47.87196 8.77976 22021 ft 404 kts
2026-05-07 11:44 47.89964 8.78746 22027 ft 403 kts
2026-05-07 11:45 47.92720 8.79513 22027 ft 403 kts
2026-05-07 11:45 47.95478 8.80281 22021 ft 403 kts
2026-05-07 11:45 47.98234 8.81050 22019 ft 403 kts
2026-05-07 11:45 48.00991 8.81819 22022 ft 402 kts
2026-05-07 11:46 48.03743 8.82587 22032 ft 403 kts
2026-05-07 11:46 48.06460 8.83346 22031 ft 403 kts
2026-05-07 11:46 48.09210 8.84115 22020 ft 402 kts
2026-05-07 11:46 48.11996 8.84895 22021 ft 402 kts
2026-05-07 11:47 48.14741 8.85665 22032 ft 401 kts
2026-05-07 11:47 48.17452 8.86426 22023 ft 402 kts
2026-05-07 11:47 48.20196 8.87197 22017 ft 401 kts
2026-05-07 11:47 48.22935 8.87968 22017 ft 400 kts
2026-05-07 11:48 48.25673 8.88739 22037 ft 401 kts
2026-05-07 11:48 48.28410 8.89510 22020 ft 401 kts
2026-05-07 11:48 48.31150 8.90283 22019 ft 400 kts
2026-05-07 11:48 48.33881 8.91054 22019 ft 400 kts
2026-05-07 11:49 48.36621 8.91829 22020 ft 399 kts
2026-05-07 11:49 48.39349 8.92600 22020 ft 399 kts
2026-05-07 11:49 48.42079 8.93374 22019 ft 399 kts
2026-05-07 11:49 48.44805 8.94148 22015 ft 399 kts
2026-05-07 11:50 48.47531 8.94922 22015 ft 399 kts
2026-05-07 11:50 48.50266 8.95700 22019 ft 399 kts
2026-05-07 11:50 48.52998 8.96478 22017 ft 399 kts
2026-05-07 11:50 48.55720 8.97253 22016 ft 398 kts
2026-05-07 11:51 48.58440 8.98028 22018 ft 398 kts
2026-05-07 11:51 48.61164 8.98805 22021 ft 398 kts
2026-05-07 11:51 48.63886 8.99583 22018 ft 398 kts
2026-05-07 11:51 48.66594 9.00358 22020 ft 397 kts
2026-05-07 11:52 48.69321 9.01138 22021 ft 398 kts
2026-05-07 11:52 48.72037 9.01917 22022 ft 398 kts
2026-05-07 11:52 48.74753 9.02696 22019 ft 397 kts
2026-05-07 11:52 48.77468 9.03457 22018 ft 397 kts
2026-05-07 11:53 48.80209 9.04066 22020 ft 396 kts
2026-05-07 11:53 48.82942 9.04601 22020 ft 397 kts
2026-05-07 11:53 48.85640 9.05128 22019 ft 396 kts
2026-05-07 11:53 48.88363 9.05674 22021 ft 396 kts
2026-05-07 11:54 48.91098 9.06238 22020 ft 396 kts
2026-05-07 11:54 48.93823 9.06806 22021 ft 396 kts
2026-05-07 11:54 48.96555 9.07383 22022 ft 396 kts
2026-05-07 11:54 48.99277 9.07961 22022 ft 395 kts
2026-05-07 11:55 49.02003 9.08540 22021 ft 395 kts
2026-05-07 11:55 49.04728 9.09119 22021 ft 395 kts
2026-05-07 11:55 49.07447 9.09697 22020 ft 395 kts
2026-05-07 11:55 49.10170 9.10276 22020 ft 395 kts
2026-05-07 11:56 49.12881 9.10853 22023 ft 394 kts
2026-05-07 11:56 49.15598 9.11432 22025 ft 395 kts
2026-05-07 11:56 49.18315 9.12012 22022 ft 394 kts
2026-05-07 11:56 49.21031 9.12593 22025 ft 394 kts
2026-05-07 11:57 49.23745 9.13174 22024 ft 394 kts
2026-05-07 11:57 49.26467 9.13756 22022 ft 394 kts
2026-05-07 11:57 49.29181 9.14333 22024 ft 394 kts
2026-05-07 11:57 49.31900 9.14784 21977 ft 393 kts
2026-05-07 11:58 49.34624 9.15145 21728 ft 392 kts
2026-05-07 11:58 49.37335 9.15491 21409 ft 390 kts
2026-05-07 11:58 49.40038 9.15848 20877 ft 389 kts
2026-05-07 11:58 49.42732 9.16219 20338 ft 386 kts
2026-05-07 11:59 49.45390 9.16593 19806 ft 382 kts
2026-05-07 11:59 49.48021 9.16969 19275 ft 378 kts
2026-05-07 11:59 49.50627 9.17344 18745 ft 375 kts
2026-05-07 11:59 49.53218 9.17717 18193 ft 372 kts
2026-05-07 12:00 49.55779 9.18086 17657 ft 368 kts
2026-05-07 12:00 49.58309 9.18450 17141 ft 363 kts
2026-05-07 12:00 49.60810 9.18811 16633 ft 359 kts
2026-05-07 12:00 49.63282 9.19190 16125 ft 356 kts
2026-05-07 12:01 49.65649 9.20276 15624 ft 355 kts 23°
2026-05-07 12:01 49.67929 9.21704 15037 ft 353 kts 11°
2026-05-07 12:01 49.70377 9.21920 14736 ft 354 kts 354°
2026-05-07 12:01 49.72816 9.21438 14480 ft 353 kts 349°
2026-05-07 12:02 49.75238 9.20868 14084 ft 351 kts 350°
2026-05-07 12:02 49.77615 9.20399 13662 ft 346 kts 352°
2026-05-07 12:02 49.80007 9.20026 13113 ft 347 kts 353°
2026-05-07 12:02 49.82438 9.19714 12328 ft 352 kts 354°
2026-05-07 12:03 49.84890 9.19437 11555 ft 356 kts 354°
2026-05-07 12:03 49.87365 9.19171 10967 ft 353 kts 354°
2026-05-07 12:03 49.89794 9.18909 10543 ft 346 kts 354°
2026-05-07 12:03 49.92129 9.18658 10356 ft 326 kts 354°
2026-05-07 12:04 49.94319 9.18423 10170 ft 306 kts 354°
2026-05-07 12:04 49.96374 9.18201 9972 ft 288 kts 354°
2026-05-07 12:04 49.98345 9.17985 9449 ft 282 kts 354°
2026-05-07 12:04 50.00299 9.17768 8836 ft 279 kts 354°
2026-05-07 12:05 50.02223 9.17554 8229 ft 276 kts 354°
2026-05-07 12:05 50.04129 9.17342 7648 ft 273 kts 354°
2026-05-07 12:05 50.06000 9.16986 7053 ft 270 kts 341°
2026-05-07 12:05 50.07563 9.15530 6634 ft 259 kts 313°
2026-05-07 12:06 50.08447 9.13183 6303 ft 248 kts 288°
2026-05-07 12:06 50.08906 9.10649 5981 ft 239 kts 287°
2026-05-07 12:06 50.09378 9.08143 5652 ft 255 kts 288°
2026-05-07 12:06 50.09930 9.05364 5339 ft 276 kts 288°
2026-05-07 12:07 50.10508 9.02541 5275 ft 268 kts 289°
2026-05-07 12:07 50.11067 8.99841 5165 ft 255 kts 289°
2026-05-07 12:07 50.11600 8.97284 5069 ft 241 kts 289°
2026-05-07 12:07 50.11973 8.94800 4996 ft 231 kts 275°
2026-05-07 12:08 50.11867 8.92349 4890 ft 225 kts 260°
2026-05-07 12:08 50.11453 8.90020 4634 ft 222 kts 253°
2026-05-07 12:08 50.10940 8.87804 4329 ft 214 kts 251°
2026-05-07 12:08 50.10435 8.85668 4054 ft 205 kts 252°
2026-05-07 12:09 50.09955 8.83626 3834 ft 194 kts 252°
2026-05-07 12:09 50.09496 8.81708 3553 ft 184 kts 252°
2026-05-07 12:09 50.09064 8.79890 3297 ft 176 kts 252°
2026-05-07 12:09 50.08644 8.78134 3073 ft 169 kts 252°
2026-05-07 12:10 50.08242 8.76445 2839 ft 164 kts 252°
2026-05-07 12:10 50.07850 8.74795 2601 ft 164 kts 252°
2026-05-07 12:10 50.07465 8.73156 2397 ft 157 kts 251°
2026-05-07 12:10 50.07104 8.71652 2195 ft 140 kts 252°
2026-05-07 12:11 50.06782 8.70295 2000 ft 128 kts 252°
2026-05-07 12:11 50.06466 8.68945 1835 ft 134 kts 252°
2026-05-07 12:11 50.06140 8.67611 1640 ft 131 kts 251°
2026-05-07 12:11 50.05807 8.66296 1429 ft 130 kts 252°
2026-05-07 12:12 50.05607 8.65419 1342 ft 131 kts 252°
2026-05-07 12:12 50.05306 8.64076 1142 ft 130 kts 251°
2026-05-07 12:12 50.04991 8.62770 932 ft 128 kts 250°
2026-05-07 12:12 50.04676 8.61476 733 ft 127 kts 250°
2026-05-07 12:13 50.04373 8.60212 572 ft 124 kts 251°
2026-05-07 12:13 50.04076 8.58946 433 ft 125 kts 249°
2026-05-07 12:13 50.03779 8.57700 364 ft 112 kts 249°
2026-05-07 12:13 50.03573 8.56848 356 ft 65 kts 249°
2026-05-07 12:14 50.03469 8.56401 355 ft 31 kts 250°
2026-05-07 12:14 50.03434 8.56063 358 ft 33 kts 274°
2026-05-07 12:14 50.03470 8.55762 349 ft 28 kts 281°
2026-05-07 12:14 50.03491 8.55483 350 ft 24 kts 263°
2026-05-07 12:15 50.03433 8.55228 353 ft 26 kts 249°
2026-05-07 12:15 50.03388 8.55023 348 ft 14 kts 265°
2026-05-07 12:15 50.03425 8.54875 349 ft 14 kts 311°
2026-05-07 12:15 50.03517 8.54804 345 ft 16 kts 340°
2026-05-07 12:16 50.03635 8.54739 350 ft 21 kts 340°
2026-05-07 12:16 50.03754 8.54743 352 ft 18 kts 51°
2026-05-07 12:16 50.03805 8.54927 352 ft 20 kts 69°
2026-05-07 12:16 50.03856 8.55138 358 ft 22 kts 71°
2026-05-07 12:17 50.03911 8.55373 356 ft 24 kts 69°
2026-05-07 12:17 50.03973 8.55632 355 ft 27 kts 69°
2026-05-07 12:17 50.04035 8.55900 354 ft 17 kts 70°
2026-05-07 12:17 50.04109 8.55959 359 ft 11 kts 337°
2026-05-07 12:18 50.04192 8.55922 352 ft 13 kts 357°
2026-05-07 12:18 50.04282 8.55962 354 ft 14 kts
2026-05-07 12:18 50.04376 8.55914 363 ft 15 kts 348°
2026-05-07 12:18 50.04486 8.55937 362 ft 18 kts 17°
2026-05-07 12:19 50.04577 8.56056 363 ft 19 kts 69°
2026-05-07 12:19 50.04626 8.56265 356 ft 22 kts 69°
2026-05-07 12:19 50.04675 8.56467 358 ft 17 kts 69°
2026-05-07 12:19 50.04730 8.56605 360 ft 13 kts 54°
2026-05-07 12:20 50.04789 8.56678 360 ft 7 kts 26°
2026-05-07 12:20 50.04798 8.56717 361 ft 5 kts 96°
2026-05-07 12:20 50.04789 8.56758 359 ft 3 kts 112°
2026-05-07 12:20 50.04785 8.56771 362 ft 0 kts 114°